Probability
0 0 0 0 0 0 0 0 0 0 0 0 0 0 0 0 0 0 0 0 10 13 16 13 10 3 6 6 6 10 16 16 23 19 26 26 23 23 23 23 23 23 23
0 0 0 0 0 0 0 0 0 0 0 0 0 0 0 0 0 0 0 0 6 6 10 6 3 6 6 6 6 10 16 13 19 19 23 19 19 19 19 19 19 19 23
0 0 0 0 0 0 0 0 0 0 0 0 0 0 0 0 0 0 0 0 0 3 3 3 6 6 3 6 10 10 10 10 16 19 23 23 19 19 19 23 16 23 23
0 0 0 0 0 0 0 0 0 0 0 0 0 0 0 0 0 0 0 0 0 0 0 3 3 10 3 6 10 10 10 10 10 13 23 23 23 19 19 19 19 19 19
0 0 0 0 0 0 0 0 0 0 0 0 0 0 0 0 0 0 0 0 0 0 0 0 0 0 6 6 6 3 3 3 3 3 10 19 23 16 16 16 19 19 19
0 0 0 0 0 0 0 0 0 0 0 0 0 0 0 0 0 0 0 0 0 0 0 0 0 0 0 6 3 3 3 3 3 3 3 19 19 19 13 16 16 19 16
0 0 0 0 0 0 0 0 0 0 0 0 0 0 0 0 0 0 0 0 0 0 0 0 0 0 0 0 3 3 3 3 3 3 3 6 16 16 16 16 16 16 13
0 0 0 0 0 0 0 0 0 0 0 0 0 0 0 0 0 0 0 0 0 0 0 0 0 0 0 0 0 0 3 3 3 3 3 3 6 10 6 13 6 13 10
0 0 0 0 0 0 0 0 0 0 0 0 0 0 0 0 0 0 0 0 0 0 0 0 0 0 0 0 0 0 0 0 3 3 3 3 3 10 6 6 10 10 10
0 0 0 0 0 0 0 0 0 0 0 0 0 0 0 0 0 0 0 0 0 0 0 0 0 0 0 0 0 0 0 0 0 6 3 0 0 6 6 3 10 10 10
0 0 0 0 0 0 0 0 0 0 0 0 0 0 0 0 0 0 0 0 0 0 0 0 0 0 0 0 0 0 0 0 0 0 3 0 0 3 6 0 0 3 6
0 0 0 0 0 0 0 0 0 0 0 0 0 0 0 0 0 0 0 0 0 0 0 0 0 0 0 0 0 0 0 0 0 0 0 3 0 3 3 3 3 3 3
0 0 0 0 0 0 0 0 0 0 0 0 0 0 0 0 0 0 0 0 0 0 0 0 0 0 0 0 0 0 0 0 0 0 0 0 0 0 3 0 3 3 0
0 0 0 0 0 0 0 0 0 0 0 0 0 0 0 0 0 0 0 0 0 0 0 0 0 0 0 0 0 0 0 0 0 0 0 0 0 0 0 0 0 3 3
0 0 0 0 0 0 0 0 0 0 0 0 0 0 0 0 0 0 0 0 0 0 0 0 0 0 0 0 0 0 0 0 0 0 0 0 0 0 0 0 0 0 0
0 0 0 0 0 0 0 0 0 0 0 0 0 0 0 0 0 0 0 0 0 0 0 0 0 0 0 0 0 0 0 0 0 0 0 0 0 0 0 0 0 0 0
0 0 0 0 0 0 0 0 0 0 0 0 0 0 0 0 0 0 0 0 0 0 0 0 0 0 0 0 0 0 0 0 0 0 0 0 0 0 0 0 0 0 0
0 0 0 0 0 0 0 0 0 0 0 0 0 0 0 0 0 0 0 0 0 0 0 0 0 0 0 0 0 0 0 0 0 0 0 0 0 0 0 0 0 0 0
0 0 0 0 0 0 0 0 0 0 0 0 0 0 0 0 0 0 0 0 0 0 0 0 0 0 0 0 0 0 0 0 0 0 0 0 0 0 0 0 0 0 0
0 0 0 0 0 0 0 0 0 0 0 0 0 0 0 0 0 0 0 0 0 0 0 0 0 0 0 0 0 0 0 0 0 0 0 0 0 0 0 0 0 0 0
0 0 0 0 0 0 0 0 0 0 0 0 0 0 0 0 0 0 0 0 0 0 0 0 0 0 0 0 0 0 0 0 0 0 0 0 0 0 0 0 0 0 0
0 0 0 0 0 0 0 0 0 0 0 3 0 0 0 0 0 0 0 0 0 0 0 0 0 0 0 0 0 0 0 0 0 0 0 0 0 0 0 0 0 0 0
0 0 0 0 0 0 0 0 0 0 0 0 0 0 0 0 0 0 0 0 0 0 0 0 0 0 0 0 0 0 0 0 0 0 0 0 0 0 0 0 0 0 0
0 0 0 0 0 0 0 0 0 0 0 0 0 0 0 0 0 0 0 0 0 0 0 0 0 0 0 0 0 0 0 0 0 0 0 0 0 0 0 0 0 0 0
0 0 0 0 0 0 0 0 0 0 0 0 0 0 0 0 0 0 0 0 0 0 0 0 0 0 0 0 0 0 0 0 0 0 0 0 0 0 0 0 0 0 0
0 0 0 0 0 0 0 0 0 0 0 0 0 0 0 0 0 0 0 0 0 0 0 0 0 0 0 0 0 0 0 0 0 0 0 0 0 0 0 0 0 0 0
Height
5849 5848 5849 5848 5848 5848 5849 5848 5849 5849 5849 5849 5849 5849 5850 5850 5850 5851 5851 5852 5852 5852 5852 5853 5853 5853 5853 5854 5854 5855 5855 5856 5856 5857 5857 5858 5858 5859 5859 5859 5860 5860 5861
5847 5846 5846 5846 5846 5846 5846 5846 5846 5847 5847 5847 5847 5847 5847 5847 5848 5848 5848 5849 5849 5849 5850 5850 5850 5850 5851 5851 5851 5852 5852 5853 5853 5854 5854 5855 5855 5856 5856 5856 5857 5857 5858
5844 5844 5844 5844 5844 5844 5844 5844 5844 5844 5844 5844 5844 5844 5844 5844 5845 5845 5845 5846 5846 5847 5847 5847 5847 5847 5848 5848 5848 5849 5849 5850 5850 5851 5851 5852 5852 5853 5853 5854 5854 5854 5854
5841 5841 5841 5841 5841 5841 5841 5842 5841 5841 5841 5841 5841 5841 5841 5842 5842 5842 5842 5843 5843 5844 5844 5844 5844 5844 5845 5845 5845 5846 5846 5846 5847 5847 5848 5848 5849 5849 5850 5850 5850 5851 5851
5838 5838 5838 5838 5838 5839 5839 5839 5839 5839 5839 5839 5839 5839 5839 5839 5839 5839 5840 5840 5840 5840 5841 5841 5841 5841 5841 5842 5842 5842 5843 5843 5843 5844 5844 5845 5845 5845 5846 5846 5847 5847 5848
5836 5835 5835 5835 5835 5835 5836 5836 5836 5836 5836 5836 5836 5836 5836 5836 5836 5836 5836 5836 5836 5837 5837 5838 5838 5838 5838 5838 5839 5839 5839 5840 5840 5840 5841 5841 5841 5842 5841 5842 5843 5843 5844
5833 5833 5833 5832 5832 5832 5832 5832 5832 5832 5832 5832 5833 5833 5833 5833 5833 5833 5833 5833 5833 5833 5833 5834 5834 5834 5835 5835 5835 5836 5836 5836 5837 5837 5837 5838 5838 5838 5838 5838 5839 5840 5840
5830 5830 5829 5829 5829 5829 5829 5828 5828 5828 5828 5829 5829 5829 5829 5830 5829 5829 5829 5829 5829 5829 5829 5830 5830 5830 5830 5831 5831 5832 5832 5833 5833 5833 5833 5834 5834 5834 5834 5834 5835 5836 5836
5826 5826 5826 5825 5825 5825 5825 5825 5824 5825 5825 5825 5825 5826 5825 5825 5825 5825 5825 5825 5825 5825 5825 5825 5825 5826 5826 5826 5826 5827 5828 5828 5829 5829 5829 5829 5830 5830 5830 5831 5831 5831 5832
5822 5822 5822 5821 5821 5821 5821 5821 5821 5821 5821 5821 5821 5821 5821 5821 5821 5821 5821 5821 5821 5821 5821 5821 5821 5821 5821 5821 5822 5822 5823 5824 5824 5825 5825 5825 5825 5826 5826 5827 5827 5827 5828
5819 5818 5818 5817 5817 5817 5817 5817 5817 5816 5817 5817 5817 5816 5816 5816 5816 5817 5817 5817 5817 5817 5817 5816 5816 5817 5816 5817 5817 5818 5818 5819 5820 5820 5821 5821 5821 5822 5822 5822 5822 5823 5823
5815 5814 5814 5813 5813 5813 5813 5813 5812 5812 5812 5812 5812 5812 5811 5811 5811 5812 5812 5812 5812 5812 5812 5812 5812 5812 5812 5812 5813 5813 5813 5814 5815 5815 5816 5816 5816 5817 5817 5817 5817 5818 5818
5811 5810 5810 5809 5809 5809 5808 5808 5808 5808 5807 5807 5807 5806 5806 5806 5806 5806 5807 5807 5807 5807 5807 5807 5807 5807 5807 5807 5807 5808 5808 5809 5810 5810 5810 5811 5811 5812 5812 5812 5812 5813 5813
5807 5806 5805 5805 5804 5804 5804 5803 5803 5803 5802 5802 5801 5801 5800 5800 5800 5800 5801 5801 5802 5802 5802 5802 5802 5802 5801 5802 5802 5802 5803 5803 5804 5804 5805 5805 5806 5806 5806 5807 5807 5807 5808
5802 5802 5801 5800 5800 5799 5799 5798 5798 5798 5797 5796 5796 5795 5794 5794 5794 5794 5795 5795 5796 5796 5797 5797 5796 5796 5795 5796 5796 5797 5797 5797 5798 5798 5799 5800 5800 5800 5801 5801 5801 5802 5802
5797 5797 5796 5796 5795 5794 5794 5793 5793 5792 5792 5791 5790 5789 5788 5787 5787 5788 5788 5789 5789 5790 5790 5791 5790 5790 5789 5789 5790 5790 5790 5791 5791 5792 5793 5793 5794 5794 5794 5795 5795 5795 5796
5792 5792 5791 5791 5790 5789 5789 5788 5787 5787 5786 5785 5784 5783 5781 5781 5781 5781 5782 5782 5782 5782 5783 5784 5783 5783 5783 5783 5783 5783 5784 5784 5785 5786 5786 5787 5787 5788 5788 5788 5789 5789 5789
5787 5786 5786 5785 5785 5784 5783 5782 5781 5781 5780 5779 5778 5776 5775 5775 5775 5775 5775 5775 5775 5775 5776 5776 5776 5776 5776 5776 5776 5776 5777 5777 5778 5778 5779 5779 5780 5781 5781 5781 5782 5782 5782
5782 5781 5780 5779 5779 5778 5777 5776 5775 5774 5773 5772 5771 5770 5769 5769 5768 5768 5768 5768 5768 5768 5768 5769 5769 5769 5769 5769 5769 5769 5769 5770 5770 5771 5771 5772 5772 5773 5773 5774 5774 5775 5775
5776 5775 5774 5773 5772 5771 5770 5769 5769 5768 5767 5766 5765 5764 5763 5762 5762 5761 5761 5761 5761 5761 5760 5761 5761 5761 5761 5761 5761 5761 5762 5762 5762 5762 5763 5764 5764 5765 5765 5766 5767 5767 5767
5769 5768 5767 5766 5765 5764 5763 5762 5761 5760 5760 5759 5758 5757 5756 5755 5754 5754 5753 5753 5753 5753 5752 5752 5753 5753 5752 5752 5752 5753 5753 5753 5754 5754 5755 5756 5756 5757 5758 5758 5759 5759 5759
5763 5761 5760 5759 5758 5756 5755 5754 5753 5752 5752 5751 5750 5749 5748 5747 5746 5745 5745 5745 5744 5744 5744 5744 5744 5744 5743 5743 5743 5743 5744 5744 5745 5746 5746 5747 5747 5749 5749 5750 5750 5750 5750
5756 5754 5753 5751 5750 5749 5747 5746 5745 5744 5743 5743 5742 5741 5740 5739 5738 5737 5736 5736 5735 5735 5735 5735 5735 5734 5734 5734 5734 5734 5734 5735 5736 5736 5737 5738 5739 5740 5740 5741 5741 5741 5742
5748 5747 5745 5744 5742 5741 5739 5738 5737 5736 5735 5734 5733 5732 5731 5730 5729 5728 5727 5727 5726 5725 5725 5725 5725 5725 5724 5724 5724 5725 5725 5726 5726 5727 5728 5729 5729 5730 5731 5731 5732 5732 5733
5740 5739 5737 5735 5734 5732 5731 5730 5728 5727 5726 5725 5724 5723 5722 5721 5720 5719 5718 5717 5716 5715 5714 5714 5714 5714 5714 5714 5714 5714 5715 5716 5717 5717 5717 5719 5719 5720 5721 5722 5722 5723 5723
5731 5730 5728 5727 5725 5724 5722 5721 5720 5719 5718 5717 5715 5714 5713 5712 5710 5709 5708 5707 5706 5705 5704 5703 5703 5703 5703 5703 5704 5704 5705 5705 5706 5707 5707 5708 5709 5710 5711 5712 5712 5713 5713
Wind_Speed
9 9 9 9 9 9 8 8 8 8 8 8 9 10 10 11 11 10 10 11 11 11 10 10 10 11 11 12 12 12 12 12 12 13 13 13 13 12 12 12 12 12 12
10 10 9 9 9 9 9 9 9 9 9 9 10 10 10 11 11 11 12 12 12 12 11 12 12 11 11 12 12 12 12 12 12 13 13 13 13 13 13 12 12 12 12
10 10 10 9 9 9 9 10 9 10 10 10 10 10 10 11 11 11 12 12 12 12 12 12 12 12 11 12 12 12 13 13 13 13 13 13 13 13 13 13 13 13 12
11 11 11 10 10 10 10 11 11 11 10 10 11 11 11 11 11 11 12 12 13 13 12 13 13 13 12 12 12 12 13 13 13 13 13 14 14 14 14 14 13 13 13
11 10 11 11 11 11 11 11 11 11 11 11 11 11 11 11 11 12 12 13 13 13 13 13 13 12 13 13 12 12 12 13 14 14 14 14 15 15 15 14 14 14 14
10 10 11 11 12 12 12 12 12 12 12 12 11 11 11 12 12 13 13 13 14 14 13 13 13 14 14 14 14 13 12 13 13 14 14 14 14 15 15 15 15 14 14
11 11 12 12 12 12 12 13 13 13 13 12 12 12 12 13 13 13 13 14 13 14 14 14 14 15 15 14 15 14 13 13 13 13 14 14 14 14 15 15 15 14 14
12 12 12 13 13 13 13 13 13 14 13 13 13 13 13 13 13 13 13 14 14 14 14 15 15 16 16 15 15 16 15 14 13 14 14 15 14 15 14 14 15 16 16
14 13 13 14 13 13 13 13 13 13 13 14 14 14 14 14 14 14 14 14 15 15 15 16 16 16 16 16 16 16 16 15 15 15 15 15 15 16 15 16 16 16 16
14 14 14 15 15 14 14 14 14 14 15 15 15 14 15 15 14 15 15 15 15 15 15 15 16 16 17 16 16 16 16 16 16 16 15 15 15 16 16 16 16 16 16
15 15 15 16 16 15 15 15 16 16 16 16 16 16 16 16 16 17 16 16 16 16 16 16 16 17 17 17 17 17 17 17 17 17 16 16 16 16 17 17 17 17 18
16 16 15 15 16 16 16 16 16 16 16 17 18 18 18 18 18 18 18 17 17 17 17 17 17 17 17 18 18 18 18 18 19 19 18 17 17 17 18 18 18 18 18
16 16 16 15 15 16 16 16 17 17 18 18 18 18 19 19 19 19 19 19 18 19 19 19 18 18 18 18 19 19 20 20 20 20 20 20 19 19 19 19 19 19 19
16 16 16 15 15 16 17 17 17 18 18 18 19 19 19 20 20 20 20 20 20 20 20 20 20 20 20 20 20 20 21 22 21 21 21 22 20 20 20 20 20 20 20
16 16 17 17 17 17 18 18 18 18 19 19 19 20 20 21 21 21 21 21 21 21 21 22 22 22 22 21 21 22 22 22 22 22 22 22 22 21 21 21 21 21 21
17 17 18 18 18 18 18 18 19 19 19 19 19 20 21 22 22 22 22 22 22 22 22 22 24 24 24 24 23 23 22 23 23 23 22 22 22 22 22 22 22 22 22
18 19 19 19 19 19 19 20 20 21 21 21 21 21 21 21 22 22 23 23 23 23 23 23 23 24 24 24 24 25 24 23 24 24 24 24 24 23 23 23 23 23 23
19 19 20 20 21 20 20 21 21 22 21 21 22 21 21 21 22 22 23 24 24 24 24 24 25 25 24 24 25 25 25 25 25 25 25 25 25 25 24 25 24 24 24
20 21 21 22 22 22 22 23 23 23 22 22 22 22 22 22 22 23 24 25 25 25 26 25 26 26 26 26 26 26 26 26 26 27 27 26 26 26 26 26 26 26 25
21 22 22 23 23 23 24 24 24 24 24 23 23 23 23 23 23 24 24 25 26 26 27 26 27 28 28 27 27 27 27 27 27 28 28 27 26 26 26 26 27 26 26
23 23 23 24 24 24 25 25 25 25 24 24 24 25 25 25 26 26 26 26 27 27 27 28 28 29 28 28 28 28 28 28 28 28 28 28 28 28 28 28 27 27 28
24 24 24 24 25 25 26 26 26 26 26 26 26 26 26 27 27 27 27 28 28 28 28 29 29 29 29 29 29 29 28 28 29 29 29 29 29 29 29 29 29 28 28
24 25 25 25 26 26 26 26 26 26 26 26 26 27 28 28 28 28 29 29 29 29 29 29 29 29 30 29 29 29 29 30 30 30 29 29 30 30 29 30 30 30 29
26 27 27 27 27 27 27 27 27 27 27 27 27 28 28 28 28 29 29 29 30 30 30 31 31 30 30 30 30 30 30 30 30 30 29 30 30 30 30 31 30 30 30
27 28 28 28 28 29 28 27 28 28 28 28 29 29 29 29 29 30 30 30 30 31 32 32 32 33 32 32 32 31 31 31 31 31 31 31 30 30 31 31 31 31 31
28 28 28 29 29 29 29 30 29 29 29 29 29 30 30 30 30 31 31 31 31 32 33 33 33 32 33 32 32 32 32 31 31 32 32 32 31 32 32 32 32 32 32
Wind_Direction
283 285 284 279 283 279 277 275 272 271 271 271 271 269 268 265 266 263 264 264 266 267 268 264 268 266 262 261 261 260 261 261 262 261 260 260 259 259 258 260 264 264 262
284 283 281 280 280 278 276 273 273 275 275 274 274 272 268 266 267 265 266 265 265 267 268 269 269 271 266 265 261 257 257 259 258 258 260 261 260 259 259 259 263 266 264
283 285 281 277 278 280 281 277 277 279 279 278 278 273 269 268 270 267 265 264 264 264 266 269 269 268 265 263 261 259 260 259 256 259 259 260 262 261 261 262 263 265 265
282 282 279 273 274 277 278 276 275 277 279 280 278 275 273 269 267 266 266 266 266 264 265 267 268 266 261 260 260 260 258 253 254 258 260 262 262 262 261 262 262 263 266
279 280 278 273 272 274 276 276 275 276 277 276 276 272 269 266 267 268 267 266 265 265 265 265 266 268 264 259 259 259 257 258 256 257 258 260 263 262 261 260 261 262 264
278 280 280 276 271 271 273 274 274 274 273 273 272 271 270 270 271 269 268 267 266 265 265 266 268 269 266 262 259 258 260 260 259 260 258 259 262 262 260 260 260 262 263
277 280 280 279 274 271 272 273 273 272 269 268 270 269 270 271 272 269 268 266 265 263 264 263 265 266 265 263 260 258 260 261 263 262 261 260 259 259 259 259 259 261 263
279 282 281 278 276 274 275 275 275 272 270 270 271 271 272 271 271 269 268 265 266 265 264 263 264 264 263 260 258 258 260 261 263 263 262 259 260 258 258 260 264 263 267
279 282 282 279 279 278 279 277 274 272 272 273 273 274 272 271 269 269 269 269 268 266 265 265 263 264 261 259 258 258 260 261 263 264 264 262 263 263 265 265 266 265 265
279 280 282 281 281 279 278 278 276 274 274 273 273 274 274 273 269 268 269 268 268 266 266 267 263 263 263 261 259 258 259 261 263 265 265 265 267 267 267 267 266 265 265
280 281 283 281 279 279 278 279 278 275 274 274 274 275 275 274 271 270 269 267 266 266 266 266 266 266 265 264 262 261 260 261 263 265 265 265 266 267 267 267 267 265 264
281 282 281 281 279 279 279 278 278 277 274 273 274 273 273 272 269 268 266 266 265 265 266 267 267 267 268 267 266 264 262 262 262 263 264 265 266 267 268 267 268 266 266
280 280 279 281 279 282 282 280 278 276 277 276 275 274 273 272 269 267 264 263 264 266 267 268 269 269 268 267 267 267 265 263 262 264 263 263 264 266 267 268 267 266 266
279 278 280 283 281 282 281 280 280 280 279 280 277 275 275 273 270 267 265 264 263 265 266 267 269 269 268 267 268 268 267 264 262 264 265 265 264 265 266 267 267 267 266
283 282 281 281 281 281 283 281 282 284 282 279 279 278 276 273 271 268 265 265 264 263 264 265 267 267 266 268 269 268 268 266 264 264 264 265 264 265 267 268 268 268 267
285 284 282 282 282 281 283 282 283 283 282 281 282 281 278 274 270 268 266 265 265 264 263 264 266 266 267 269 270 270 271 268 266 265 265 266 267 267 267 267 267 267 268
283 282 281 279 280 282 284 284 284 284 282 281 282 282 279 276 273 269 267 266 265 266 265 266 268 268 268 269 270 271 271 270 268 266 265 266 267 266 266 267 269 269 268
282 279 280 281 280 281 282 283 284 282 282 282 283 282 279 276 275 271 270 269 269 269 268 268 270 271 270 270 269 270 270 270 270 265 265 266 266 265 265 266 269 270 269
282 281 281 281 280 280 281 282 283 282 281 281 282 282 280 278 276 274 272 271 271 271 270 269 271 271 272 271 270 269 269 270 271 267 266 266 265 265 264 265 267 269 269
282 282 281 281 282 282 282 283 280 280 279 279 280 280 281 281 278 276 274 273 272 272 271 270 271 272 272 271 270 269 269 269 269 267 267 265 265 266 265 265 266 267 268
282 283 283 283 282 283 282 281 280 279 280 280 279 280 281 280 277 277 277 277 276 274 272 271 271 271 272 272 270 269 269 269 268 267 265 265 265 266 266 265 266 269 269
283 284 284 283 283 284 284 282 279 278 279 280 279 279 280 280 279 279 279 278 278 277 274 272 270 272 272 272 271 270 270 269 267 265 265 265 264 266 267 266 266 268 269
284 285 285 284 285 285 285 283 280 280 280 279 279 279 280 282 280 280 278 277 277 277 275 274 271 271 271 270 271 269 268 268 268 265 264 264 264 265 266 268 267 267 268
284 284 285 285 285 285 283 282 280 281 281 280 279 279 280 281 282 281 280 279 278 277 276 275 273 271 270 270 270 270 268 268 268 266 266 264 264 263 264 266 266 266 266
284 284 284 285 285 284 283 282 281 281 282 280 280 279 280 281 282 282 281 280 278 277 276 275 273 271 270 271 271 271 270 269 267 266 266 264 262 262 263 264 265 265 266
285 285 284 284 284 282 280 281 282 282 283 282 282 281 280 281 282 283 282 280 277 276 276 275 273 271 270 271 271 271 271 270 269 266 265 263 263 264 263 264 265 266 267